Wind_Speed
26 26 27 27 27 27 28 27 26 25 25 25 24 23 22 21 20 19 19 19 19 21 20 18 17 17 16 15 14 13 13 13 13 13 13 13 13 12 11 10 10 10 10 10 9 9 9 9 10 10 10 11 12 13 10 9 10 8 9 10 10 10 9 7 9 10 10 11 11 9 8 10 9 8 10 11 9 10 12 13 11 11 13 15 17
26 27 26 27 26 25 26 27 27 27 26 26 26 24 24 24 22 21 21 20 20 20 20 19 18 18 17 16 15 15 15 14 13 14 14 13 14 13 12 12 12 11 11 11 11 11 10 10 10 10 10 10 11 12 11 9 10 10 9 10 11 10 10 8 10 12 12 10 9 9 8 8 7 8 10 12 12 11 10 9 9 10 13 16 16
25 26 26 27 26 25 26 25 26 27 26 26 27 25 25 25 25 24 22 22 22 22 21 20 21 20 19 17 16 16 17 16 15 15 14 14 14 14 12 12 13 12 12 11 11 11 12 12 12 10 10 11 11 11 12 11 11 11 11 11 10 9 9 11 12 13 14 13 11 9 7 6 9 12 13 14 13 12 11 10 8 8 12 16 17
23 24 24 26 26 26 26 25 25 26 26 26 26 26 25 25 26 26 24 23 23 24 23 21 22 23 22 20 19 19 19 18 17 16 16 15 15 15 14 14 14 13 13 13 12 12 13 13 13 11 11 12 12 12 12 13 14 14 14 14 13 12 12 12 12 13 15 15 13 11 11 10 12 14 14 14 12 11 12 12 12 10 10 14 17
22 23 23 24 26 27 26 26 25 25 25 25 25 26 25 25 26 27 27 25 23 24 25 24 23 24 24 23 22 22 21 20 19 17 17 17 17 16 16 16 16 15 14 14 13 13 14 14 14 13 13 14 14 14 14 13 15 16 16 16 17 18 18 17 16 16 17 17 15 13 13 14 14 14 13 12 12 11 11 11 13 14 12 13 16
19 21 22 24 28 29 27 26 25 25 25 25 24 25 25 25 25 26 27 27 25 24 25 26 25 24 25 25 25 25 23 22 22 20 18 19 19 18 17 17 17 17 16 16 15 15 15 15 15 15 15 16 16 16 15 14 15 16 16 16 17 17 18 18 18 18 19 19 17 16 16 16 16 15 13 12 12 12 12 12 14 14 13 13 16
18 20 22 25 28 29 28 26 25 24 24 24 25 25 25 25 25 26 27 27 27 25 24 26 27 26 26 26 26 26 26 25 24 23 21 20 20 20 19 19 18 18 18 17 16 16 16 16 16 16 17 18 17 17 16 16 17 17 17 17 17 16 16 16 17 17 18 19 19 18 18 16 15 13 10 9 11 14 16 16 14 11 9 12 15
19 21 22 24 27 27 27 27 26 24 22 23 25 26 25 25 26 26 26 26 27 27 26 25 25 27 27 28 27 27 27 27 26 25 24 23 22 22 21 21 20 20 19 19 18 18 17 17 18 18 18 18 18 17 17 18 19 19 18 17 18 19 19 18 17 17 18 18 18 17 17 15 13 13 12 11 13 16 16 15 13 10 9 13 15
17 20 21 23 27 28 26 25 26 27 25 22 24 27 27 26 26 27 27 26 26 26 26 26 25 26 27 28 28 28 28 28 28 27 26 25 25 25 25 24 23 22 21 21 20 19 19 19 19 19 20 20 20 19 18 18 19 20 19 18 18 20 20 20 20 20 19 19 19 18 17 17 16 17 16 14 14 14 13 13 13 12 13 14 14
9 12 16 19 23 26 26 24 25 28 28 25 25 26 28 29 27 26 27 27 26 25 26 26 25 25 26 27 27 27 28 29 29 29 28 27 27 27 27 27 26 25 24 24 23 22 21 21 21 20 20 22 23 23 22 21 21 21 21 21 20 21 21 22 22 23 22 22 23 22 22 22 20 17 15 14 13 13 12 13 13 12 11 14 16
8 7 10 15 18 21 20 19 20 22 23 26 27 26 29 31 29 27 28 28 27 26 25 26 27 26 25 26 27 27 28 28 29 30 30 29 29 28 28 29 29 29 28 27 27 26 25 24 23 22 22 23 24 25 25 25 25 24 24 24 24 24 24 24 25 24 24 23 23 23 23 22 19 16 15 15 14 13 14 14 13 12 13 17 21
9 7 6 9 14 17 18 18 19 19 19 23 25 25 27 30 31 30 27 27 28 28 26 26 27 27 26 25 26 27 27 27 28 29 30 30 30 29 29 30 31 31 31 31 30 29 29 28 27 25 24 24 25 26 27 28 28 29 29 28 27 27 27 28 28 27 27 26 24 23 23 21 19 17 17 16 15 16 17 18 18 19 20 22 23
4 6 5 5 7 10 14 18 21 21 21 22 23 23 23 26 30 30 25 23 25 28 28 27 27 28 29 28 26 27 27 27 28 28 29 30 30 30 30 30 31 32 32 32 32 32 31 31 30 29 27 25 25 26 28 29 29 30 29 28 27 27 28 29 31 31 30 30 29 28 27 25 24 23 22 21 21 21 22 22 22 23 22 22 22
7 5 3 4 6 7 10 15 18 19 20 22 23 23 24 25 27 27 25 23 23 24 27 29 29 29 30 31 30 29 27 27 28 28 29 29 30 30 30 30 31 31 31 30 30 30 30 30 31 32 31 30 28 28 28 29 29 29 29 29 29 28 28 29 30 32 33 34 34 33 32 30 30 29 27 25 25 24 24 24 24 23 22 21 21
9 8 7 6 7 8 10 13 14 14 17 20 21 22 23 24 24 25 24 24 25 26 27 29 29 31 33 33 33 33 31 29 28 29 28 28 28 28 29 30 30 30 31 31 30 30 29 29 29 30 31 32 31 30 30 30 31 31 31 31 32 33 33 32 31 32 33 35 36 35 34 33 32 31 30 29 28 27 26 25 24 23 22 22 22
9 11 11 11 10 9 9 12 13 13 14 16 18 18 19 21 23 23 23 24 25 27 29 29 29 30 32 33 33 34 34 33 32 31 30 29 28 28 28 29 30 30 30 31 32 32 32 32 31 31 30 31 31 30 30 31 32 34 34 35 36 37 38 36 33 32 32 33 35 35 34 33 32 31 31 30 30 28 27 27 25 25 25 25 26
8 10 10 11 12 13 12 11 12 15 15 17 18 17 17 19 21 22 22 22 22 23 25 27 29 29 29 30 31 32 33 32 33 34 34 32 31 30 30 30 30 31 31 31 31 32 33 34 35 35 35 34 33 32 31 30 32 34 36 37 37 38 39 37 34 33 32 32 32 32 32 32 31 30 30 30 30 30 30 29 28 27 27 27 28
11 11 10 9 10 12 15 14 10 13 17 18 20 18 15 16 19 22 22 21 21 21 22 25 28 29 29 29 29 30 31 30 29 30 33 34 34 33 33 33 33 33 34 33 33 32 32 33 34 36 37 38 37 37 35 34 33 34 36 37 38 39 38 36 35 34 34 32 31 30 29 28 28 27 27 28 29 29 31 33 32 30 30 30 31
16 14 13 12 10 10 13 13 9 7 11 14 17 18 16 15 17 20 22 22 23 23 23 24 27 29 30 30 29 28 29 29 28 27 28 30 32 34 34 34 35 35 36 36 36 35 34 34 34 35 36 37 38 38 39 38 38 37 37 38 39 40 39 36 35 34 33 33 32 31 31 30 29 29 28 29 29 30 32 33 32 33 34 34 34
19 17 15 14 11 8 7 9 9 7 7 9 11 14 16 17 17 18 20 22 24 25 24 24 26 28 29 30 29 28 28 27 28 29 27 26 27 29 31 33 34 35 36 36 36 36 35 34 34 35 35 36 37 38 38 39 41 41 39 39 40 41 40 38 37 35 34 34 34 33 33 33 32 32 31 31 31 30 31 32 32 32 34 35 35
18 20 18 16 14 9 4 5 7 8 9 9 8 10 14 17 16 16 18 20 22 24 24 24 25 27 28 28 28 28 26 23 23 25 26 26 26 26 27 30 30 31 32 33 34 35 35 34 33 33 34 35 36 36 37 37 38 40 41 42 43 42 41 40 39 37 35 35 35 35 35 34 34 34 34 33 33 32 32 32 31 31 31 33 34
14 19 18 16 14 11 7 7 9 8 10 11 10 8 10 16 17 15 15 16 19 22 24 25 26 26 27 27 26 25 24 23 24 23 21 22 24 25 27 28 28 27 28 29 31 32 32 31 30 29 30 32 33 34 36 35 35 35 37 39 41 42 42 42 41 38 36 35 35 36 37 37 36 36 36 35 35 34 33 32 30 29 29 30 31
13 15 14 13 14 13 10 10 11 10 11 13 13 10 7 9 13 13 13 14 15 18 21 23 25 26 26 25 25 26 25 24 26 26 23 22 24 25 26 27 27 27 28 29 30 31 30 30 29 27 27 28 29 30 32 33 33 34 34 34 35 37 40 43 43 41 39 37 36 36 37 37 37 37 37 36 35 34 33 32 30 29 28 27 27
15 13 11 12 15 15 13 12 11 10 9 12 13 12 10 8 7 8 10 12 14 16 19 21 22 24 25 24 24 25 25 24 24 25 26 26 27 27 27 27 26 27 30 32 33 33 34 32 30 29 29 29 30 30 30 30 32 33 33 32 31 32 35 39 43 43 42 41 40 39 38 37 36 37 37 36 34 34 33 31 30 29 29 28 28
14 12 13 14 14 15 14 13 11 9 9 10 11 12 14 14 11 9 8 9 11 13 16 18 20 21 22 23 23 23 24 24 22 23 25 27 28 28 29 29 28 29 32 34 35 35 36 36 34 33 33 33 33 33 33 32 31 32 34 34 33 32 33 35 39 42 44 44 44 44 43 42 41 40 40 38 37 35 33 32 31 31 31 32 31
15 15 16 14 12 14 15 12 10 11 12 10 8 7 10 13 15 14 12 9 8 9 11 12 16 19 19 20 21 22 22 23 22 21 24 27 28 28 29 30 31 32 34 35 35 35 35 36 37 38 37 37 36 37 37 36 34 33 34 36 36 36 35 35 36 39 43 45 45 46 46 45 44 43 43 42 41 40 39 37 36 35 34 34 35
17 17 16 14 13 13 13 12 12 13 11 9 10 9 8 9 11 13 14 12 9 8 9 8 9 12 14 17 19 20 20 20 19 19 21 25 26 27 28 30 32 33 34 34 33 31 31 33 36 39 39 38 38 38 39 39 39 38 36 36 38 39 39 38 38 39 41 43 45 46 46 45 44 44 44 44 45 44 43 41 40 39 38 37 37
17 16 15 15 14 13 12 12 12 11 10 10 11 12 12 13 13 12 14 15 14 13 11 9 9 10 10 12 16 19 20 20 19 18 19 22 24 25 27 29 30 31 32 31 29 28 28 30 33 36 38 38 37 38 38 39 41 42 41 39 40 41 41 41 41 42 43 43 44 45 46 45 45 45 44 44 44 44 43 41 41 41 40 39 39
16 16 16 16 14 12 12 11 10 11 13 14 13 14 16 18 19 19 19 20 20 20 17 13 10 11 11 11 12 16 19 19 20 19 21 23 24 25 26 26 26 28 29 28 27 28 29 30 31 32 36 37 38 38 38 38 40 44 44 43 42 42 43 44 45 46 47 46 46 47 47 46 47 46 45 45 44 43 41 40 40 40 39 39 41
17 17 17 16 14 13 11 11 12 14 17 18 18 18 18 18 19 21 22 22 22 23 22 18 13 11 12 11 12 14 16 16 16 19 22 25 26 26 26 25 25 27 27 26 27 30 32 32 31 30 32 36 38 38 38 38 38 40 42 42 42 43 44 44 44 46 46 47 49 50 49 49 48 47 46 46 45 43 41 40 40 39 38 39 40
19 18 18 17 16 15 14 13 13 14 16 17 18 18 18 18 18 19 22 23 23 23 24 22 19 17 16 14 12 12 13 12 13 16 20 23 25 27 27 26 26 27 26 27 30 33 34 33 32 30 30 32 34 36 37 37 37 37 37 38 39 40 41 41 40 40 41 42 44 45 47 49 50 50 48 47 46 44 42 41 40 40 40 40 40
19 19 19 19 18 17 16 15 13 14 15 16 16 16 17 18 18 18 18 21 24 25 25 25 23 22 21 18 14 12 12 11 11 13 16 20 24 27 28 29 28 28 27 29 33 35 35 34 33 31 30 30 31 31 32 33 35 37 37 37 37 37 38 39 40 40 41 41 41 40 41 43 45 48 49 48 45 43 42 41 40 40 40 40 41
19 19 19 19 20 19 18 17 16 16 17 16 14 14 16 17 18 19 20 22 24 25 25 26 25 23 23 19 14 12 12 11 11 13 14 17 21 25 29 31 31 30 30 33 37 38 36 34 33 32 32 32 31 30 30 30 32 35 38 39 39 39 38 38 40 43 45 46 45 44 43 41 40 41 44 46 45 43 42 41 40 39 39 40 41
20 20 19 19 20 20 19 18 17 16 16 15 14 14 15 15 16 20 23 25 26 25 25 24 23 22 22 20 15 12 12 12 12 13 15 17 20 24 28 31 32 32 33 35 39 40 39 38 36 34 34 35 34 33 33 32 32 34 37 39 40 41 40 38 39 43 47 49 49 48 46 44 41 39 38 40 40 40 40 39 39 38 38 39 39
20 20 20 21 21 19 17 17 17 17 17 17 16 15 16 16 18 21 23 25 25 24 23 20 17 18 21 22 19 16 14 13 13 14 15 17 20 23 27 31 33 33 33 35 38 41 42 42 41 39 39 40 40 39 37 35 34 34 36 38 40 42 42 40 40 42 44 47 49 50 48 46 43 40 38 36 35 34 34 35 36 37 38 37 36
20 20 20 20 19 16 14 15 16 17 17 17 17 19 21 22 22 21 21 20 20 20 20 18 17 18 20 22 21 19 16 13 14 15 16 16 18 20 25 29 31 32 32 33 36 39 41 43 43 43 43 44 45 44 41 38 36 35 34 35 37 39 39 40 40 43 45 45 46 47 48 47 44 41 38 33 30 30 31 32 34 36 36 36 37
19 18 18 18 16 14 14 16 18 19 20 20 21 22 23 23 21 20 18 18 18 19 20 20 19 17 17 17 19 20 18 15 15 17 18 18 18 19 22 26 29 30 31 32 33 35 36 38 40 40 41 42 44 45 42 39 38 36 35 34 35 37 38 39 40 43 47 48 47 45 43 43 44 42 37 31 29 31 33 33 33 35 35 36 38
16 15 15 15 16 16 17 18 19 20 20 20 19 20 19 19 19 19 19 19 19 19 19 19 17 15 14 16 19 21 21 20 18 18 20 20 19 19 20 22 25 27 29 30 30 29 28 30 32 34 36 38 40 41 39 37 37 37 37 37 37 38 38 39 41 44 48 50 52 50 45 41 37 31 30 31 33 34 35 34 34 35 36 37 39
14 14 14 15 16 17 16 16 16 17 18 18 18 18 18 19 19 19 19 19 19 18 17 16 15 14 15 19 22 23 24 24 22 21 20 21 21 21 20 19 21 24 26 27 28 27 24 24 25 27 30 32 34 36 36 36 36 37 37 37 38 38 37 37 41 46 47 49 51 50 46 42 35 25 22 29 35 35 35 36 37 37 37 38 38
14 14 14 14 15 15 17 18 18 17 18 18 19 19 19 19 19 19 19 19 19 18 17 16 15 16 17 20 23 25 26 27 26 24 22 22 23 25 24 21 21 22 23 25 27 27 26 25 25 25 27 29 31 33 36 37 38 38 37 36 37 37 36 37 41 44 46 48 49 47 43 43 39 32 27 31 36 35 34 34 35 36 38 39 39
17 16 16 16 16 16 17 17 18 18 18 19 20 21 21 20 20 19 19 20 20 20 19 18 16 16 18 20 23 25 28 29 27 25 23 23 24 26 27 26 25 25 25 26 27 27 27 28 27 26 27 28 30 33 35 37 39 39 38 37 36 36 37 39 41 42 44 46 46 44 41 40 40 38 35 34 35 36 35 34 34 36 37 37 38
17 19 18 18 19 19 18 18 19 20 21 22 22 22 22 22 21 21 20 20 21 21 21 21 19 17 17 20 23 27 29 30 27 25 25 25 25 25 26 27 28 28 28 29 30 30 30 31 32 31 29 28 27 28 30 31 34 37 38 38 38 38 40 40 41 43 44 44 43 41 36 32 30 32 34 35 35 35 35 34 34 36 36 36 36
17 17 17 18 20 21 21 21 22 22 22 22 23 23 23 23 23 23 23 24 24 24 23 22 21 19 18 21 25 28 29 28 26 24 25 26 26 25 24 26 27 28 29 30 31 32 33 34 35 36 36 34 32 31 29 29 30 31 33 35 36 37 39 40 40 41 42 43 41 38 33 27 22 20 22 29 33 36 36 34 33 34 34 34 34
17 17 17 19 20 21 22 22 22 23 23 23 24 25 25 25 25 24 24 24 25 24 24 22 21 20 21 23 25 26 27 26 25 25 26 27 26 25 25 26 27 28 29 31 31 31 32 34 35 37 38 38 38 37 36 34 33 32 32 33 33 33 35 37 37 37 38 40 40 39 37 35 32 26 22 23 26 29 31 32 31 31 32 32 33
17 17 18 19 20 21 21 21 22 22 23 24 25 24 23 23 23 23 23 23 23 23 23 23 23 24 26 26 26 26 27 28 28 28 28 27 27 27 26 26 27 27 28 30 31 31 31 31 33 36 37 38 39 40 39 38 37 37 37 37 37 37 37 38 39 39 39 40 41 42 42 40 40 38 34 30 28 27 27 26 26 28 30 32 33
17 18 19 20 20 21 21 21 22 23 24 24 24 23 22 22 22 22 22 23 23 24 24 25 27 29 30 29 27 27 28 29 29 29 29 28 28 28 27 26 27 27 28 29 31 32 31 30 30 32 35 37 38 40 41 40 39 39 40 40 41 41 41 40 41 42 43 43 45 47 47 46 45 44 42 40 38 37 35 33 31 30 31 31 32
18 19 19 19 20 20 21 21 22 23 24 24 24 24 24 24 24 23 23 22 23 23 23 24 25 27 28 27 27 28 29 29 28 29 29 28 28 28 27 27 26 26 27 28 29 30 31 29 28 29 31 33 35 37 38 39 39 39 39 39 40 41 41 42 43 44 46 47 47 48 48 48 48 47 45 44 43 43 42 42 40 39 38 37 36
18 18 18 18 19 20 20 21 21 22 23 24 24 24 23 22 22 22 22 21 20 20 20 21 22 24 26 27 27 28 28 28 28 28 28 27 26 26 26 26 25 25 25 26 26 27 27 27 26 26 26 28 29 31 32 34 35 36 37 38 38 39 40 41 42 42 43 44 44 45 45 45 45 45 45 44 44 43 42 41 39 38 36 36 36
16 17 17 18 19 19 20 21 22 22 23 23 23 22 21 20 21 22 23 23 22 22 22 23 24 24 25 26 27 27 27 27 26 27 27 26 24 24 24 24 24 23 23 23 24 23 23 24 23 23 23 23 24 25 26 27 27 28 29 30 31 31 32 33 35 36 36 37 38 39 39 40 40 40 40 39 38 37 36 35 34 33 32 31 32
16 16 17 18 18 19 20 21 21 21 21 21 21 20 19 19 20 21 23 24 24 24 24 24 24 24 24 25 26 26 26 25 25 25 25 23 21 22 22 22 21 20 19 20 20 20 20 21 21 21 20 19 18 18 19 19 19 20 20 21 21 23 24 25 26 27 27 28 28 29 29 30 31 31 31 31 30 29 28 27 27 26 26 25 26
15 16 17 17 18 19 20 20 20 20 19 19 19 19 18 18 19 20 21 23 23 22 21 21 22 23 23 24 24 24 24 23 22 21 20 19 18 19 18 18 18 17 16 17 18 19 18 17 17 17 15 14 13 12 13 14 14 14 14 14 13 13 13 14 14 14 14 14 14 14 15 16 17 17 17 18 18 17 17 17 17 18 18 19 21
Wind_Direction
214 215 215 215 215 218 220 215 214 216 210 206 209 209 209 210 209 208 212 214 207 206 212 213 210 209 208 207 209 214 217 210 209 212 207 205 207 204 203 211 214 211 213 210 201 215 233 226 224 226 220 217 207 194 207 245 250 238 224 223 230 234 232 234 245 249 240 239 249 251 248 259 268 278 287 293 297 297 304 314 324 329 325 324 329
215 214 214 215 214 216 222 219 215 216 214 210 209 209 210 211 209 209 210 212 212 216 217 210 209 214 213 210 208 211 222 222 214 217 218 213 213 215 215 217 218 216 218 219 210 211 224 229 230 233 231 227 218 207 204 224 243 250 248 240 235 230 231 245 257 258 257 253 253 254 253 263 276 275 273 278 287 295 303 316 331 330 316 309 315
220 219 217 216 215 214 218 220 219 218 214 212 212 211 212 213 211 208 209 212 211 215 222 215 209 213 214 212 212 210 219 228 223 219 223 223 220 219 223 227 228 225 223 226 224 218 221 228 231 231 235 237 234 225 215 214 226 237 245 254 256 247 245 254 260 264 265 260 257 260 259 261 263 259 262 276 292 305 311 318 321 312 300 297 305
226 227 224 221 217 216 218 218 218 218 214 212 213 212 213 215 214 211 208 212 213 212 218 220 216 216 214 211 215 216 218 227 229 222 222 227 228 223 221 225 232 234 231 230 232 232 231 234 236 233 234 238 241 239 229 219 219 223 227 237 240 237 236 243 253 263 265 262 261 264 265 264 263 266 273 280 286 294 300 304 304 303 296 288 295
226 228 228 230 224 219 220 219 217 217 214 213 215 215 214 214 217 217 210 210 215 215 216 218 220 224 221 215 216 222 223 225 229 228 224 228 232 230 224 223 228 234 237 236 235 237 239 240 241 238 236 238 240 242 240 232 226 223 225 232 236 235 231 229 234 246 258 263 264 264 267 272 276 281 284 286 287 286 283 284 293 299 298 288 289
225 227 227 230 227 222 221 221 220 221 218 216 217 217 217 216 217 220 217 211 213 218 219 218 219 224 228 225 222 225 227 226 230 232 229 229 235 238 234 229 231 234 236 239 238 238 242 244 243 242 241 242 243 243 243 241 239 233 228 232 240 243 243 242 243 246 251 259 263 266 270 275 282 288 293 298 296 290 286 287 288 286 284 283 286
221 229 230 227 226 224 224 224 224 225 225 223 223 221 220 221 219 221 223 219 213 215 219 222 222 221 227 231 229 228 231 230 232 235 232 228 232 239 241 238 238 240 241 242 243 243 247 250 250 247 246 246 246 246 241 240 246 247 238 233 238 243 244 247 254 255 256 260 265 270 274 278 285 293 298 297 289 287 291 296 298 294 283 276 280
225 231 233 229 227 225 225 225 226 226 226 227 230 228 225 225 224 223 226 225 219 215 217 222 225 223 224 232 233 232 234 235 236 237 237 232 228 233 240 241 239 242 245 246 246 244 246 251 254 254 254 255 254 252 246 240 245 252 252 244 241 244 245 244 246 252 259 266 270 273 277 278 277 272 266 263 269 280 286 290 296 301 290 280 282
233 236 235 231 229 228 227 227 229 230 227 224 227 231 230 229 228 226 227 227 223 220 219 220 225 226 224 229 234 233 234 238 240 240 240 239 234 232 235 239 239 238 241 246 247 246 245 246 249 254 258 263 266 265 261 253 248 250 254 252 247 247 250 250 247 245 248 254 259 261 263 263 262 264 268 273 281 287 286 282 287 289 282 281 285
235 240 240 234 226 224 226 229 233 233 231 226 225 229 232 232 231 229 229 229 227 225 224 221 223 228 227 228 232 234 234 237 243 245 244 243 242 238 236 238 240 240 239 241 243 245 247 247 248 249 252 258 265 268 269 267 260 254 252 252 251 250 250 250 251 251 249 248 251 254 257 260 264 267 274 282 288 291 286 283 290 294 282 280 284
232 239 247 240 227 222 227 234 237 237 233 229 229 230 232 232 233 233 231 230 229 228 227 224 224 227 229 229 230 233 236 237 241 246 248 248 246 245 242 241 242 244 244 244 244 245 246 247 250 251 251 252 256 261 264 267 267 265 261 256 253 253 252 252 254 256 256 255 255 256 258 262 265 265 265 270 272 273 272 270 274 276 270 274 282
243 250 256 247 238 237 240 244 244 242 236 232 236 239 238 234 233 234 236 234 230 230 230 229 227 226 228 231 230 232 237 239 240 243 248 251 251 249 247 245 244 245 247 249 250 250 249 249 251 253 254 255 256 258 260 261 263 266 267 266 262 259 257 258 259 261 261 261 260 259 259 261 263 261 260 261 259 258 258 258 261 265 269 276 282
307 278 266 258 255 249 244 242 243 242 238 238 244 249 249 245 237 237 245 246 237 234 233 232 232 229 227 229 231 233 238 242 242 242 244 249 253 253 251 248 245 246 248 251 253 254 254 254 254 254 255 256 258 262 265 265 265 267 271 273 272 267 263 260 260 261 262 262 261 261 261 261 261 263 264 263 261 262 264 267 271 274 277 280 282
360 336 302 273 261 251 244 244 246 247 245 245 251 253 254 255 248 244 256 263 255 243 235 232 235 235 231 229 230 232 235 240 244 247 247 249 252 255 255 252 249 247 247 249 252 256 257 258 258 259 258 257 257 260 265 270 271 272 273 273 273 272 268 264 261 260 261 261 261 262 264 264 264 268 271 269 268 269 271 275 279 281 282 282 282
21 13 1 339 298 274 262 253 252 256 258 257 258 256 253 255 253 250 253 258 256 246 234 229 232 236 236 234 232 231 232 235 241 248 252 253 254 256 257 256 254 252 250 248 248 251 255 258 261 263 264 264 262 259 261 265 269 270 271 271 272 273 272 272 270 267 266 265 265 267 269 269 269 271 273 272 272 274 276 279 281 281 281 280 279
37 37 29 17 1 337 305 277 263 262 263 264 267 266 258 251 252 253 249 246 246 244 237 232 230 233 238 239 237 237 237 236 237 241 246 252 255 257 257 257 257 257 256 254 252 251 252 253 257 260 262 265 266 264 261 261 263 266 268 268 270 271 274 276 276 273 271 269 269 269 271 272 272 273 273 272 272 274 275 276 276 277 277 278 279
17 25 28 26 22 12 355 326 292 276 268 266 268 272 270 259 252 252 250 243 242 245 246 243 237 235 240 244 243 243 244 244 242 242 242 245 249 253 255 256 257 259 260 261 260 258 257 255 256 257 258 260 263 265 265 262 260 261 263 265 268 270 274 278 279 279 277 273 271 270 269 270 270 270 269 267 267 268 267 265 266 268 270 272 275
355 359 3 11 26 21 9 0 331 294 284 278 272 270 274 270 256 248 248 248 247 247 247 247 244 241 242 245 245 247 249 250 250 250 248 246 245 247 251 254 256 258 261 263 263 264 263 261 261 260 261 261 261 262 264 263 262 260 259 260 263 266 270 273 276 279 280 278 275 273 271 270 269 267 265 262 261 260 258 258 261 262 261 262 268
348 353 353 356 19 28 6 360 1 323 295 290 285 276 272 273 263 248 244 248 252 252 250 247 246 246 245 244 245 246 249 250 249 250 251 251 249 248 248 251 253 256 259 262 264 265 266 265 265 265 266 267 267 265 264 262 262 262 260 259 260 262 265 267 268 271 275 275 273 272 270 270 270 269 267 265 263 260 258 259 260 260 259 262 266
342 346 349 349 4 26 5 351 5 358 320 304 298 283 268 267 266 254 247 249 252 255 256 252 249 248 247 248 248 248 249 252 249 246 246 248 250 251 249 249 252 255 258 260 262 263 266 267 267 268 269 271 272 272 270 267 264 263 261 259 259 262 264 265 264 265 266 268 269 269 268 268 269 269 268 267 266 264 263 262 261 260 260 262 265
338 340 343 345 351 4 7 356 4 360 345 334 317 288 266 261 262 256 253 256 256 256 258 256 252 249 248 250 253 254 255 257 254 253 250 246 246 251 253 253 255 257 260 261 261 261 263 266 268 270 272 273 275 275 275 272 269 265 262 261 262 264 265 265 265 265 264 263 264 265 265 265 265 265 265 266 266 266 265 264 262 262 262 262 263
334 337 340 343 346 346 347 352 353 351 352 352 346 324 278 257 254 255 259 264 264 260 259 259 257 255 252 250 251 254 260 263 260 259 260 254 248 249 252 254 257 260 260 261 262 262 264 265 266 267 268 271 275 277 277 277 274 270 268 267 267 266 265 265 265 264 262 261 261 261 261 262 261 262 263 265 266 266 266 264 262 261 262 263 263
332 337 339 340 341 340 337 339 343 347 349 345 345 353 336 275 266 272 274 273 271 266 264 263 262 261 259 254 247 247 254 261 258 254 256 259 257 253 251 251 253 256 258 259 262 264 266 266 264 259 256 258 262 266 271 274 275 274 274 274 271 268 266 265 264 261 259 259 257 256 257 259 260 260 261 262 263 264 266 267 267 267 266 265 265
330 332 328 327 334 338 335 331 337 348 343 326 323 334 344 339 329 319 300 288 283 277 271 268 268 265 263 259 253 250 252 256 257 253 251 255 259 259 258 256 253 252 253 256 259 263 264 265 263 258 253 252 253 254 258 263 267 271 273 274 273 270 266 263 262 261 259 257 255 254 253 254 255 257 259 259 260 262 264 266 267 269 270 270 269
323 317 316 322 329 331 331 334 337 330 316 311 318 327 328 331 339 340 323 309 303 296 284 274 270 269 267 262 257 255 255 256 258 257 253 253 254 256 258 259 258 255 254 256 260 262 262 262 262 260 259 258 256 254 255 256 258 262 267 271 271 269 265 262 261 259 258 257 256 255 253 252 252 254 256 257 257 258 259 259 258 260 263 266 267
306 305 311 318 324 325 328 331 322 313 314 315 312 309 315 321 323 322 317 313 312 311 303 286 274 274 277 273 265 261 258 255 255 257 257 256 254 254 255 257 257 257 258 259 261 262 261 259 258 257 260 263 263 262 260 258 256 255 258 263 267 266 263 262 260 258 257 257 257 257 257 256 256 256 256 255 255 254 255 255 254 254 255 258 261
296 302 308 311 315 319 322 321 315 316 321 317 299 289 293 306 313 313 310 307 304 302 306 312 305 292 286 284 280 274 269 264 259 255 255 256 255 254 254 255 256 257 258 260 262 265 266 262 257 255 256 259 263 264 262 259 257 255 253 253 258 261 263 263 263 261 260 259 259 259 259 258 258 258 257 255 255 257 256 255 254 254 253 253 254
296 298 300 305 309 311 311 315 319 314 305 303 307 304 295 289 289 289 288 290 294 297 298 310 329 326 309 296 287 281 277 274 272 267 261 258 256 253 251 252 253 252 255 261 266 268 268 264 258 256 255 254 254 256 256 256 255 255 254 252 253 257 261 263 264 264 263 262 261 261 260 258 256 256 256 256 256 257 258 256 254 254 254 252 251
293 293 296 300 305 306 306 309 307 293 284 290 299 298 295 297 297 293 288 287 291 296 299 301 312 323 326 322 308 294 285 279 275 272 269 264 259 255 254 255 256 254 255 261 267 267 264 261 256 255 254 252 250 250 253 255 255 255 256 255 254 255 258 260 263 264 264 262 261 260 258 256 255 254 254 254 255 255 255 255 255 255 254 252 251
291 290 292 294 298 301 301 301 298 292 291 296 300 299 298 301 301 299 297 295 290 291 297 301 300 303 313 323 324 314 302 288 274 265 263 263 262 261 262 265 267 266 264 263 262 262 262 260 257 256 255 253 252 251 252 253 255 257 259 259 258 258 259 261 264 265 263 261 260 259 257 255 254 253 252 252 253 253 252 252 253 254 253 251 251
293 290 289 291 293 294 294 295 297 296 298 302 305 304 302 299 298 300 302 300 294 290 295 299 298 293 294 304 318 318 308 294 277 263 258 258 259 261 264 268 271 271 269 265 261 261 262 260 257 257 259 258 255 254 252 251 253 255 257 260 263 264 265 266 265 264 263 261 259 258 256 254 253 252 251 251 252 251 250 250 251 251 251 250 250
290 289 287 285 285 287 293 298 296 291 293 297 298 299 300 299 298 299 299 298 297 297 298 299 298 292 286 288 301 315 311 299 285 273 263 257 255 256 259 263 267 269 268 265 262 260 261 260 256 256 260 263 263 261 257 254 254 254 254 256 260 262 265 268 268 265 263 264 264 261 259 256 254 252 251 250 250 250 249 248 247 248 248 249 250
289 288 286 285 284 283 285 291 292 291 294 298 298 296 297 299 300 299 296 296 300 303 304 303 302 298 289 281 287 304 309 301 291 281 273 265 259 256 255 255 257 261 263 265 264 263 262 262 260 257 258 262 267 270 269 264 259 256 254 255 258 260 263 266 267 267 265 263 264 264 262 260 259 256 253 250 249 249 249 248 247 247 248 248 249
287 285 283 285 284 282 283 289 294 295 296 296 294 290 290 294 297 297 296 298 303 307 309 309 310 307 297 287 284 294 302 299 290 281 275 270 266 261 258 254 251 251 254 259 263 265 265 265 265 263 262 264 268 273 276 275 268 260 257 259 262 263 263 260 260 265 267 264 261 261 260 258 257 257 255 252 250 249 249 249 249 248 248 250 251
287 284 282 281 278 277 285 292 293 292 291 290 285 279 278 283 288 290 293 299 305 309 311 312 310 305 301 299 296 292 290 289 286 281 276 272 267 264 261 258 253 250 250 254 258 261 263 265 264 263 264 267 270 274 277 278 273 265 263 263 263 264 266 264 262 265 269 266 261 258 257 254 253 253 253 253 252 251 251 252 252 250 250 251 253
286 286 285 281 276 276 283 287 284 283 284 282 277 274 278 284 291 295 298 300 302 303 303 301 298 298 302 306 302 292 281 277 282 284 280 273 270 269 267 263 259 255 253 253 254 256 258 261 263 264 266 269 271 274 276 278 275 269 265 264 264 267 272 274 273 275 277 274 268 262 257 254 252 250 248 247 248 249 251 251 250 248 247 248 250
282 281 278 274 272 274 277 275 272 275 278 278 277 281 286 290 296 300 299 294 290 290 292 295 299 301 301 300 297 291 282 277 281 286 284 278 275 277 277 273 267 264 261 258 256 257 258 258 260 265 269 271 273 274 275 275 273 271 270 269 271 275 280 282 282 283 282 280 276 270 264 260 256 248 242 243 250 253 252 250 248 246 246 247 248
280 276 273 272 274 279 282 280 278 280 283 285 286 288 291 292 293 292 289 285 284 286 290 294 297 298 293 284 282 283 282 279 279 282 286 285 281 280 281 280 276 273 269 265 262 263 266 266 266 268 270 272 274 275 275 272 270 270 272 273 274 276 279 281 282 282 280 278 277 275 274 274 269 255 243 248 258 259 255 253 251 249 248 249 249
283 283 284 284 284 286 288 288 286 285 286 287 288 288 288 288 287 286 285 284 284 285 286 287 288 287 282 275 273 276 279 279 278 279 284 288 287 283 281 279 279 279 276 270 264 261 262 265 268 271 273 274 275 274 272 270 269 269 270 270 270 272 274 274 276 277 276 275 276 276 274 273 278 279 266 261 263 261 258 258 257 254 254 254 254
284 289 291 291 291 291 289 287 286 287 288 289 289 289 287 286 285 285 284 283 282 281 282 283 283 280 275 271 273 276 277 278 279 279 279 280 283 283 280 275 271 271 272 272 269 266 263 262 261 261 262 264 266 266 265 266 267 267 267 268 269 270 271 271 272 274 274 273 275 278 275 271 275 283 282 272 267 264 262 260 259 258 259 259 258
283 283 285 287 289 290 291 293 293 291 289 288 287 287 285 283 283 282 281 279 279 278 278 276 275 274 273 273 275 276 275 277 281 282 276 272 273 277 279 278 273 266 263 266 269 271 272 273 272 268 263 261 262 264 265 265 266 266 266 266 267 267 267 267 268 269 269 269 272 276 278 276 275 277 276 273 270 266 262 260 257 257 258 259 260
290 285 284 284 283 280 282 288 290 286 283 283 284 285 284 282 280 278 276 274 274 276 276 274 272 273 276 277 275 273 273 276 281 282 276 271 271 272 275 278 277 270 263 262 264 266 269 272 274 273 270 267 266 268 269 269 269 270 269 267 266 265 265 266 266 267 268 268 269 270 273 276 278 276 270 265 264 264 261 259 258 258 258 258 260
300 293 289 288 286 283 283 286 288 287 285 283 282 281 280 279 278 277 274 272 273 275 277 278 276 272 267 265 265 267 272 278 281 279 274 274 275 274 271 271 273 272 267 263 263 263 264 266 268 269 269 268 268 269 270 270 271 272 272 270 267 265 264 264 264 264 265 266 266 265 263 264 271 275 264 255 257 263 264 260 258 259 260 261 262
301 299 295 292 291 289 289 290 289 287 285 281 279 278 279 279 278 278 277 277 276 275 276 278 276 268 261 261 266 272 278 282 282 280 279 280 279 275 269 267 268 270 269 266 265 264 264 264 265 267 267 267 266 267 269 270 271 272 273 272 270 267 265 263 262 263 263 263 264 266 267 265 267 271 266 255 256 264 268 268 266 265 265 263 262
305 302 298 295 293 290 289 287 285 284 283 281 279 280 281 281 279 277 277 277 277 276 275 274 271 269 271 276 279 280 280 280 282 284 286 284 280 274 269 267 266 266 266 266 267 267 266 265 265 266 267 266 265 264 265 267 268 270 271 273 273 273 272 270 269 270 271 271 272 276 279 279 277 278 276 270 264 263 265 269 272 274 273 270 267
306 302 298 295 293 290 288 287 285 283 282 282 282 282 282 280 277 275 274 275 275 275 274 273 273 276 281 284 283 280 279 281 284 287 287 285 281 276 271 267 265 264 265 266 268 268 267 267 267 268 268 267 264 262 262 264 266 268 270 271 273 273 274 274 275 275 276 278 280 281 283 283 281 280 279 278 276 274 273 272 273 273 272 270 267
306 304 299 295 293 291 289 288 286 284 283 283 283 283 282 279 276 274 273 273 273 272 271 272 275 278 281 282 281 281 283 286 288 288 287 285 282 277 273 269 266 264 264 265 268 269 269 269 270 270 271 270 267 263 262 262 263 266 268 270 272 274 275 276 278 278 279 280 281 281 280 279 278 277 277 277 277 277 277 276 275 274 274 272 270
308 306 301 298 295 293 291 289 286 285 285 284 283 283 281 277 274 273 272 270 269 267 266 268 273 276 279 280 282 283 286 288 288 288 287 284 281 278 276 273 269 266 265 265 266 268 270 270 270 270 270 270 269 268 266 264 263 264 267 269 271 273 275 276 277 278 278 277 277 277 277 276 275 275 274 274 273 273 273 272 272 271 271 271 270
310 307 303 300 297 295 293 291 288 286 286 285 283 281 278 275 274 275 274 271 268 266 267 270 274 277 279 280 281 283 285 287 286 284 284 284 281 279 278 275 272 269 268 266 266 267 267 268 268 266 264 264 266 268 268 267 265 265 266 267 269 271 273 274 275 275 275 274 274 273 272 272 272 271 271 270 271 271 271 271 270 267 265 265 266
313 310 307 304 302 300 296 293 290 289 287 286 283 279 276 275 275 275 274 274 273 273 274 274 275 276 278 278 280 282 283 282 281 280 281 281 279 276 275 275 272 270 268 265 264 262 261 262 264 265 264 263 264 266 267 266 266 266 265 266 267 267 268 269 271 271 271 271 270 270 269 269 269 269 270 272 274 275 275 275 274 272 269 268 268
319 315 312 309 307 305 302 299 296 294 291 288 285 281 278 277 276 277 278 279 277 274 273 273 275 278 280 281 281 282 282 281 280 280 278 275 273 271 272 273 270 264 260 258 257 256 256 258 262 264 263 262 261 260 260 262 264 265 266 266 266 264 262 262 263 264 266 268 269 270 272 273 273 274 277 281 284 285 283 280 278 276 274 271 269
Height
1554 1555 1556 1558 1559 1560 1562 1563 1565 1567 1568 1570 1572 1573 1575 1575 1577 1578 1578 1579 1580 1581 1582 1582 1583 1584 1586 1587 1588 1589 1590 1591 1592 1592 1593 1595 1595 1596 1597 1598 1598 1599 1600 1600 1601 1602 1602 1602 1602 1603 1603 1604 1604 1605 1606 1606 1606 1607 1607 1607 1608 1608 1608 1608 1608 1608 1608 1608 1608 1608 1608 1608 1608 1608 1607 1607 1607 1606 1605 1604 1603 1602 1602 1602 1601
1554 1555 1556 1557 1558 1560 1561 1562 1564 1566 1567 1569 1570 1572 1573 1574 1576 1577 1578 1579 1579 1579 1580 1581 1583 1583 1584 1586 1587 1588 1589 1590 1591 1592 1592 1594 1594 1595 1596 1597 1598 1598 1599 1600 1600 1601 1601 1601 1602 1602 1602 1602 1603 1603 1605 1606 1606 1606 1606 1606 1606 1607 1607 1607 1607 1607 1606 1607 1607 1607 1607 1607 1607 1607 1606 1606 1606 1605 1604 1603 1602 1601 1600 1600 1600
1552 1554 1555 1556 1558 1560 1561 1562 1563 1565 1566 1567 1569 1570 1572 1573 1574 1576 1577 1578 1578 1579 1579 1580 1581 1582 1583 1585 1586 1587 1588 1589 1590 1591 1592 1593 1594 1595 1596 1596 1597 1598 1598 1599 1599 1600 1600 1601 1601 1601 1601 1601 1602 1602 1603 1604 1605 1605 1605 1605 1605 1606 1606 1606 1606 1606 1605 1605 1605 1605 1605 1606 1606 1605 1605 1605 1604 1604 1603 1602 1602 1602 1600 1599 1599
1549 1552 1554 1556 1558 1560 1561 1562 1563 1564 1565 1567 1568 1569 1571 1572 1573 1574 1576 1577 1577 1578 1579 1579 1580 1581 1582 1583 1584 1586 1587 1587 1589 1590 1591 1592 1593 1594 1595 1595 1596 1597 1597 1598 1599 1599 1600 1600 1600 1601 1601 1601 1601 1601 1602 1603 1603 1604 1604 1604 1604 1605 1605 1605 1605 1604 1604 1604 1604 1604 1604 1604 1604 1604 1604 1603 1603 1602 1602 1601 1601 1602 1601 1599 1597
1548 1551 1554 1555 1557 1560 1561 1563 1564 1564 1565 1567 1568 1569 1570 1571 1572 1572 1574 1576 1576 1577 1578 1579 1579 1580 1581 1582 1583 1584 1585 1586 1587 1588 1590 1591 1591 1593 1593 1594 1595 1596 1596 1597 1598 1598 1599 1599 1599 1600 1600 1600 1600 1600 1601 1601 1602 1602 1603 1603 1603 1603 1603 1604 1604 1603 1603 1602 1602 1603 1603 1603 1602 1602 1602 1602 1601 1601 1601 1600 1600 1600 1600 1599 1596
1547 1549 1552 1554 1556 1559 1561 1563 1565 1565 1566 1567 1568 1569 1570 1571 1571 1571 1572 1574 1575 1576 1576 1577 1578 1578 1579 1580 1581 1582 1583 1585 1586 1587 1589 1589 1590 1591 1592 1593 1594 1594 1595 1596 1596 1597 1597 1598 1598 1599 1599 1599 1599 1600 1600 1600 1601 1601 1601 1601 1602 1602 1602 1602 1602 1602 1602 1601 1601 1601 1601 1601 1600 1600 1600 1600 1599 1599 1599 1599 1599 1598 1598 1597 1595
1546 1548 1551 1552 1555 1557 1559 1561 1562 1564 1567 1568 1569 1569 1570 1571 1571 1571 1571 1572 1574 1575 1575 1575 1576 1577 1578 1578 1580 1581 1582 1583 1584 1585 1587 1588 1589 1590 1591 1592 1593 1593 1594 1595 1595 1596 1596 1597 1597 1597 1598 1598 1598 1599 1599 1600 1600 1599 1599 1600 1600 1601 1601 1601 1601 1601 1600 1600 1599 1599 1599 1599 1599 1598 1599 1598 1598 1597 1597 1597 1597 1596 1596 1595 1594
1546 1547 1549 1551 1553 1556 1557 1559 1561 1562 1563 1565 1568 1569 1569 1570 1571 1571 1571 1571 1572 1574 1574 1574 1574 1575 1576 1577 1578 1579 1580 1581 1582 1583 1585 1586 1588 1588 1589 1590 1591 1592 1593 1593 1594 1595 1595 1596 1596 1596 1596 1597 1597 1598 1598 1599 1599 1598 1598 1599 1599 1599 1599 1600 1600 1599 1599 1598 1598 1598 1598 1598 1598 1597 1597 1597 1597 1596 1596 1595 1594 1594 1594 1594 1593
1546 1547 1548 1550 1552 1553 1555 1557 1558 1559 1560 1561 1564 1567 1568 1569 1570 1570 1571 1570 1571 1572 1573 1574 1574 1574 1575 1575 1576 1577 1578 1579 1580 1581 1583 1584 1586 1587 1587 1588 1589 1590 1591 1592 1593 1594 1594 1595 1595 1596 1596 1596 1596 1597 1597 1598 1598 1598 1598 1598 1598 1598 1598 1598 1598 1598 1598 1597 1597 1597 1597 1597 1596 1596 1596 1596 1595 1595 1594 1593 1593 1592 1592 1591 1591
1547 1547 1549 1550 1551 1552 1553 1554 1554 1555 1557 1559 1560 1562 1565 1566 1568 1569 1570 1570 1570 1571 1572 1573 1573 1573 1573 1573 1574 1575 1576 1576 1577 1578 1580 1581 1583 1585 1586 1586 1587 1589 1590 1591 1592 1592 1593 1594 1594 1595 1596 1595 1595 1595 1596 1597 1597 1597 1597 1597 1597 1597 1597 1597 1596 1596 1596 1596 1596 1596 1595 1595 1595 1595 1594 1594 1594 1593 1593 1592 1591 1590 1590 1589 1588
1547 1547 1548 1549 1551 1551 1553 1553 1553 1554 1555 1557 1558 1559 1560 1562 1565 1567 1568 1569 1569 1569 1570 1571 1572 1573 1573 1572 1573 1573 1574 1574 1574 1575 1577 1578 1580 1582 1583 1585 1585 1586 1587 1588 1589 1590 1591 1592 1593 1593 1594 1594 1595 1594 1595 1595 1595 1595 1596 1596 1596 1596 1595 1595 1595 1595 1595 1594 1594 1594 1593 1593 1593 1593 1593 1593 1592 1592 1591 1590 1590 1589 1588 1587 1586
1545 1546 1547 1548 1548 1549 1550 1552 1553 1553 1554 1555 1555 1555 1556 1559 1560 1562 1564 1567 1569 1569 1569 1569 1570 1571 1572 1571 1571 1571 1571 1572 1573 1573 1574 1575 1577 1579 1580 1582 1583 1583 1584 1585 1586 1588 1589 1590 1591 1591 1592 1593 1593 1593 1593 1593 1594 1593 1594 1594 1594 1594 1594 1594 1593 1593 1593 1592 1592 1592 1591 1591 1591 1591 1591 1591 1590 1590 1589 1588 1588 1587 1586 1585 1583
1543 1543 1545 1547 1548 1549 1550 1551 1551 1551 1551 1551 1551 1552 1554 1556 1557 1558 1560 1562 1566 1568 1569 1569 1568 1568 1569 1570 1570 1569 1569 1569 1570 1571 1572 1573 1574 1576 1577 1579 1580 1581 1582 1582 1583 1585 1586 1587 1588 1588 1590 1591 1591 1591 1591 1591 1591 1591 1591 1591 1592 1592 1592 1591 1591 1591 1591 1590 1590 1589 1589 1589 1589 1588 1589 1589 1588 1587 1586 1586 1585 1584 1583 1582 1581
1540 1541 1542 1544 1546 1547 1548 1548 1548 1548 1548 1548 1549 1551 1553 1553 1555 1559 1560 1561 1562 1564 1565 1566 1567 1567 1566 1567 1567 1567 1567 1567 1567 1568 1569 1570 1571 1572 1574 1575 1577 1578 1579 1580 1581 1582 1583 1584 1585 1585 1586 1588 1589 1590 1589 1589 1589 1589 1589 1589 1589 1589 1589 1589 1589 1588 1588 1588 1587 1586 1586 1586 1586 1586 1586 1586 1585 1585 1584 1583 1582 1581 1580 1580 1579
1541 1541 1541 1542 1542 1543 1544 1544 1545 1545 1545 1546 1547 1549 1550 1551 1553 1557 1559 1560 1562 1561 1561 1561 1562 1563 1563 1563 1564 1564 1564 1565 1565 1565 1566 1567 1568 1569 1570 1572 1573 1574 1576 1577 1578 1579 1580 1581 1582 1582 1583 1584 1585 1587 1588 1587 1587 1587 1587 1586 1586 1586 1586 1586 1586 1585 1585 1584 1584 1583 1584 1584 1583 1583 1583 1583 1583 1582 1581 1580 1579 1579 1578 1577 1576
1542 1542 1542 1542 1542 1542 1541 1541 1542 1543 1543 1544 1546 1547 1548 1549 1551 1552 1553 1554 1556 1557 1558 1559 1559 1559 1560 1561 1561 1561 1561 1562 1563 1563 1564 1564 1565 1566 1567 1568 1569 1571 1572 1573 1575 1576 1577 1578 1579 1579 1580 1581 1582 1583 1585 1585 1585 1584 1583 1583 1583 1582 1582 1582 1583 1583 1582 1581 1581 1580 1580 1581 1581 1580 1581 1580 1580 1579 1579 1577 1576 1576 1575 1574 1573
1544 1543 1542 1542 1542 1542 1541 1541 1541 1541 1542 1543 1544 1545 1546 1545 1546 1548 1549 1550 1550 1552 1555 1557 1558 1558 1558 1559 1559 1559 1560 1561 1561 1562 1562 1563 1564 1564 1564 1565 1566 1567 1568 1569 1571 1572 1573 1574 1575 1576 1576 1577 1578 1579 1580 1582 1582 1581 1580 1580 1579 1578 1577 1578 1578 1578 1578 1578 1578 1577 1577 1577 1578 1577 1577 1577 1577 1577 1576 1574 1573 1573 1572 1571 1569
1544 1544 1543 1542 1542 1542 1542 1541 1541 1541 1542 1542 1542 1543 1543 1543 1543 1544 1545 1546 1547 1549 1552 1554 1555 1555 1555 1556 1557 1557 1557 1559 1560 1561 1561 1561 1562 1562 1562 1563 1563 1563 1564 1565 1566 1567 1568 1569 1570 1571 1571 1572 1574 1575 1576 1577 1577 1577 1577 1577 1576 1574 1574 1575 1575 1574 1574 1574 1574 1574 1574 1574 1574 1573 1573 1573 1573 1573 1572 1570 1570 1571 1569 1568 1567
1544 1544 1543 1543 1542 1542 1543 1543 1542 1542 1541 1541 1540 1540 1540 1539 1539 1540 1542 1543 1544 1547 1548 1549 1550 1551 1552 1553 1553 1554 1554 1555 1556 1557 1558 1559 1559 1559 1560 1560 1560 1560 1561 1561 1562 1562 1563 1564 1564 1565 1565 1566 1568 1569 1571 1572 1572 1572 1573 1573 1572 1570 1571 1572 1571 1571 1571 1570 1570 1570 1570 1570 1570 1570 1569 1569 1569 1569 1568 1567 1567 1567 1566 1565 1565
1543 1543 1543 1543 1542 1542 1542 1542 1541 1540 1540 1538 1537 1537 1536 1536 1536 1537 1539 1541 1542 1544 1546 1546 1546 1547 1548 1550 1550 1550 1550 1550 1551 1551 1552 1553 1554 1555 1556 1556 1556 1557 1557 1557 1557 1557 1557 1558 1558 1559 1560 1561 1562 1563 1564 1565 1566 1567 1568 1568 1567 1566 1567 1568 1568 1568 1567 1566 1565 1566 1566 1566 1566 1566 1565 1565 1564 1564 1564 1564 1564 1564 1563 1562 1562
1542 1543 1543 1542 1542 1542 1541 1541 1539 1538 1538 1536 1535 1534 1534 1534 1535 1536 1538 1539 1540 1541 1542 1543 1543 1543 1544 1546 1546 1546 1545 1545 1547 1548 1548 1549 1550 1551 1551 1552 1552 1553 1554 1553 1553 1553 1552 1552 1552 1553 1554 1554 1555 1557 1557 1558 1560 1561 1561 1561 1561 1562 1563 1563 1563 1563 1563 1562 1562 1561 1561 1561 1561 1561 1561 1560 1560 1560 1560 1560 1560 1560 1559 1559 1558
1542 1541 1541 1542 1542 1541 1541 1540 1539 1538 1537 1536 1535 1534 1533 1533 1534 1535 1537 1538 1538 1539 1539 1539 1539 1540 1540 1541 1541 1541 1541 1542 1544 1546 1546 1546 1547 1548 1547 1547 1548 1549 1549 1549 1549 1548 1548 1548 1547 1548 1548 1548 1549 1550 1551 1552 1553 1554 1554 1555 1556 1557 1558 1558 1558 1559 1559 1558 1558 1557 1556 1556 1556 1556 1556 1556 1556 1556 1556 1556 1556 1557 1556 1555 1554
1541 1540 1540 1540 1540 1541 1540 1540 1539 1538 1537 1536 1536 1535 1534 1534 1534 1534 1535 1535 1536 1536 1537 1536 1536 1536 1537 1537 1536 1536 1536 1538 1541 1543 1543 1543 1544 1545 1544 1544 1545 1545 1545 1544 1544 1543 1543 1542 1542 1542 1542 1542 1542 1543 1544 1545 1546 1547 1548 1549 1550 1551 1552 1552 1553 1553 1553 1553 1553 1552 1551 1551 1550 1551 1551 1551 1552 1552 1552 1552 1552 1553 1552 1552 1551
1539 1539 1539 1539 1538 1539 1539 1539 1538 1538 1537 1537 1536 1535 1534 1534 1533 1533 1533 1533 1533 1533 1533 1534 1534 1533 1533 1533 1533 1533 1532 1533 1535 1538 1539 1539 1540 1541 1541 1541 1541 1542 1542 1541 1540 1540 1539 1539 1538 1537 1536 1535 1535 1536 1537 1538 1539 1541 1542 1543 1544 1545 1546 1546 1546 1547 1547 1547 1547 1546 1546 1546 1546 1545 1546 1547 1547 1548 1548 1548 1548 1548 1548 1547 1547
1537 1537 1537 1537 1537 1537 1537 1537 1538 1537 1537 1536 1536 1535 1535 1534 1533 1533 1532 1532 1531 1531 1531 1531 1531 1530 1530 1529 1529 1529 1529 1529 1530 1532 1533 1534 1535 1536 1536 1537 1538 1539 1538 1537 1537 1537 1536 1536 1535 1534 1532 1530 1530 1529 1530 1530 1532 1534 1536 1538 1538 1539 1540 1540 1540 1541 1540 1540 1540 1539 1540 1540 1541 1541 1542 1543 1543 1544 1544 1544 1545 1544 1544 1543 1543
1535 1535 1535 1535 1535 1535 1535 1535 1536 1535 1535 1535 1535 1535 1534 1533 1532 1532 1531 1530 1530 1529 1528 1528 1527 1527 1527 1526 1526 1526 1525 1525 1526 1527 1528 1528 1529 1531 1532 1533 1534 1534 1533 1532 1532 1531 1530 1530 1530 1529 1529 1528 1526 1525 1524 1524 1525 1527 1529 1531 1532 1532 1533 1533 1534 1534 1533 1532 1532 1532 1532 1534 1535 1536 1537 1538 1538 1538 1539 1540 1540 1541 1541 1540 1539
1533 1533 1533 1533 1533 1533 1533 1533 1533 1533 1533 1533 1533 1533 1533 1532 1531 1530 1529 1528 1528 1527 1526 1526 1525 1524 1524 1523 1523 1522 1521 1521 1522 1523 1524 1524 1524 1525 1527 1527 1528 1528 1528 1528 1528 1527 1526 1525 1524 1524 1524 1524 1523 1522 1520 1519 1519 1520 1521 1523 1524 1525 1526 1527 1527 1527 1526 1526 1526 1526 1526 1528 1529 1529 1530 1531 1531 1531 1533 1534 1535 1535 1536 1537 1535
1530 1531 1531 1531 1531 1531 1531 1531 1531 1531 1531 1531 1530 1530 1530 1530 1529 1528 1527 1526 1525 1524 1524 1523 1522 1521 1520 1520 1519 1518 1518 1519 1519 1520 1521 1520 1520 1520 1521 1522 1523 1523 1523 1524 1524 1523 1522 1521 1520 1519 1518 1517 1516 1515 1515 1515 1515 1514 1514 1516 1517 1518 1520 1521 1521 1520 1520 1520 1520 1520 1520 1521 1522 1522 1523 1524 1523 1524 1526 1528 1529 1529 1531 1532 1531
1528 1528 1529 1528 1529 1529 1529 1529 1529 1529 1528 1528 1528 1528 1527 1526 1526 1525 1525 1524 1523 1522 1521 1521 1520 1519 1518 1517 1516 1514 1514 1515 1516 1518 1518 1517 1517 1517 1517 1518 1518 1518 1519 1520 1519 1518 1517 1515 1513 1512 1512 1511 1510 1509 1509 1509 1510 1509 1509 1510 1512 1513 1514 1515 1514 1513 1514 1515 1514 1513 1514 1515 1515 1516 1517 1517 1517 1519 1521 1522 1523 1524 1526 1527 1526
1525 1526 1526 1526 1527 1527 1527 1527 1526 1526 1525 1525 1525 1524 1524 1523 1523 1522 1522 1522 1521 1521 1520 1519 1519 1517 1516 1515 1514 1512 1511 1511 1512 1513 1514 1514 1514 1514 1514 1515 1515 1515 1515 1515 1514 1513 1511 1509 1507 1507 1507 1506 1505 1504 1503 1504 1504 1505 1506 1506 1507 1508 1508 1509 1508 1508 1508 1509 1508 1507 1508 1508 1508 1509 1511 1511 1511 1514 1516 1516 1517 1519 1520 1520 1520
1522 1523 1523 1524 1524 1524 1524 1524 1523 1524 1523 1523 1522 1522 1521 1520 1520 1519 1519 1518 1518 1518 1517 1517 1516 1515 1514 1512 1512 1510 1509 1508 1508 1509 1509 1510 1511 1511 1511 1512 1512 1512 1512 1512 1510 1508 1506 1504 1503 1502 1502 1502 1501 1500 1499 1499 1500 1502 1503 1503 1503 1503 1503 1503 1502 1503 1503 1503 1502 1501 1501 1502 1502 1502 1504 1505 1506 1509 1511 1512 1513 1513 1514 1514 1514
1520 1520 1521 1521 1521 1521 1521 1521 1521 1521 1521 1520 1521 1520 1519 1518 1517 1517 1516 1516 1515 1514 1514 1513 1513 1513 1511 1510 1509 1508 1506 1505 1504 1504 1504 1505 1506 1506 1506 1507 1508 1508 1509 1507 1504 1502 1501 1500 1498 1498 1498 1498 1497 1496 1496 1496 1496 1497 1500 1501 1500 1500 1499 1498 1498 1499 1499 1498 1497 1497 1496 1495 1496 1496 1498 1500 1501 1503 1505 1507 1508 1509 1509 1510 1510
1517 1517 1518 1518 1518 1519 1519 1519 1519 1519 1518 1518 1518 1518 1517 1516 1515 1514 1513 1512 1511 1511 1510 1510 1509 1509 1508 1507 1506 1505 1504 1502 1501 1500 1500 1500 1501 1501 1501 1501 1502 1503 1504 1502 1500 1498 1497 1497 1495 1494 1494 1494 1494 1495 1494 1493 1492 1493 1495 1497 1497 1497 1497 1497 1496 1496 1494 1494 1494 1493 1492 1491 1492 1492 1494 1495 1497 1499 1501 1503 1505 1506 1506 1506 1506
1515 1515 1515 1516 1516 1516 1516 1516 1516 1516 1516 1516 1515 1515 1515 1515 1513 1512 1510 1509 1508 1507 1506 1506 1506 1505 1505 1504 1503 1502 1501 1500 1498 1497 1497 1496 1497 1497 1497 1497 1497 1498 1498 1497 1495 1494 1494 1493 1492 1491 1491 1491 1492 1493 1493 1492 1492 1492 1493 1494 1495 1495 1495 1496 1497 1495 1493 1492 1492 1490 1490 1490 1490 1490 1491 1492 1494 1496 1498 1500 1503 1504 1504 1504 1505
1513 1512 1513 1513 1513 1513 1513 1514 1514 1514 1514 1513 1512 1512 1512 1511 1511 1510 1508 1506 1505 1503 1503 1503 1503 1502 1501 1501 1501 1500 1498 1497 1496 1495 1494 1494 1494 1494 1493 1493 1493 1493 1492 1491 1491 1490 1490 1489 1488 1487 1487 1487 1488 1489 1490 1490 1490 1491 1492 1493 1494 1494 1494 1496 1496 1495 1495 1493 1491 1490 1489 1489 1489 1489 1490 1491 1492 1495 1497 1499 1501 1501 1502 1503 1504
1510 1510 1510 1510 1510 1511 1511 1511 1511 1510 1510 1510 1509 1509 1508 1508 1508 1507 1505 1504 1503 1502 1501 1500 1500 1499 1498 1497 1497 1497 1496 1495 1494 1493 1492 1492 1491 1491 1491 1490 1489 1489 1488 1487 1485 1484 1484 1484 1483 1483 1483 1483 1484 1484 1485 1486 1487 1487 1488 1489 1490 1491 1492 1493 1493 1494 1495 1496 1495 1492 1489 1488 1488 1488 1488 1489 1491 1492 1493 1493 1493 1494 1496 1497 1496
1508 1508 1507 1507 1507 1507 1507 1507 1507 1507 1507 1507 1506 1506 1505 1505 1505 1504 1503 1502 1502 1500 1499 1498 1497 1497 1496 1495 1493 1493 1493 1493 1492 1491 1490 1489 1489 1488 1488 1487 1486 1485 1484 1483 1481 1480 1479 1479 1479 1479 1479 1480 1480 1480 1482 1483 1483 1483 1483 1483 1484 1485 1486 1487 1489 1491 1493 1494 1495 1493 1491 1490 1487 1485 1486 1489 1489 1486 1485 1486 1487 1489 1490 1489 1487
1506 1505 1505 1505 1504 1504 1504 1504 1504 1505 1505 1504 1504 1503 1502 1502 1502 1501 1501 1500 1500 1499 1497 1496 1495 1495 1495 1493 1491 1491 1491 1491 1491 1490 1489 1488 1486 1485 1485 1484 1483 1482 1481 1480 1478 1476 1475 1475 1476 1475 1476 1476 1476 1477 1478 1479 1480 1480 1480 1480 1480 1480 1480 1482 1484 1485 1486 1488 1487 1487 1489 1490 1485 1482 1485 1487 1484 1482 1482 1483 1484 1484 1483 1482 1482
1503 1503 1503 1502 1502 1502 1502 1502 1502 1502 1502 1502 1501 1501 1500 1500 1499 1499 1498 1498 1497 1497 1496 1494 1494 1493 1492 1491 1489 1488 1488 1488 1488 1488 1487 1486 1485 1483 1482 1481 1480 1479 1478 1476 1474 1473 1472 1471 1472 1472 1472 1472 1473 1473 1473 1474 1475 1475 1475 1475 1475 1475 1477 1478 1478 1479 1480 1481 1480 1481 1483 1483 1481 1481 1484 1484 1481 1480 1480 1480 1479 1479 1479 1479 1479
1501 1500 1500 1500 1500 1500 1500 1500 1500 1500 1500 1499 1499 1498 1497 1497 1497 1496 1496 1495 1494 1494 1493 1492 1491 1491 1489 1488 1487 1485 1484 1484 1484 1484 1484 1484 1483 1481 1479 1478 1476 1475 1474 1473 1471 1470 1469 1468 1468 1468 1469 1468 1469 1469 1469 1470 1470 1470 1470 1470 1469 1470 1472 1473 1474 1474 1475 1475 1475 1477 1478 1476 1475 1477 1480 1479 1477 1476 1476 1475 1475 1475 1475 1474 1473
1498 1497 1497 1497 1497 1497 1497 1497 1498 1498 1497 1497 1496 1495 1495 1495 1494 1494 1493 1492 1491 1490 1490 1489 1488 1487 1486 1484 1483 1482 1481 1480 1480 1480 1480 1479 1479 1478 1477 1476 1474 1472 1470 1469 1468 1467 1467 1466 1466 1465 1465 1465 1466 1466 1466 1466 1466 1466 1466 1465 1465 1465 1466 1468 1469 1469 1470 1470 1471 1473 1473 1472 1471 1472 1472 1472 1472 1472 1470 1469 1469 1468 1467 1467 1467
1495 1495 1494 1494 1494 1494 1495 1495 1495 1494 1494 1494 1493 1493 1492 1492 1491 1490 1489 1489 1488 1487 1486 1485 1485 1484 1483 1481 1480 1478 1477 1476 1476 1476 1475 1474 1474 1474 1473 1472 1471 1470 1468 1466 1464 1463 1464 1463 1463 1462 1462 1462 1463 1463 1463 1463 1462 1461 1461 1460 1459 1460 1461 1462 1463 1463 1463 1464 1465 1467 1468 1468 1467 1466 1466 1467 1467 1466 1464 1464 1463 1462 1461 1460 1460
1493 1493 1492 1492 1492 1492 1492 1492 1491 1491 1491 1491 1490 1490 1489 1488 1488 1487 1486 1485 1485 1484 1483 1482 1482 1481 1480 1478 1476 1474 1473 1472 1472 1472 1471 1469 1469 1469 1469 1468 1467 1466 1466 1464 1462 1460 1460 1459 1459 1458 1458 1459 1459 1459 1459 1459 1458 1457 1456 1455 1454 1454 1455 1457 1458 1458 1458 1458 1459 1460 1462 1462 1462 1462 1462 1463 1462 1460 1459 1458 1459 1457 1456 1454 1453
1491 1491 1490 1490 1489 1489 1489 1489 1489 1488 1488 1488 1487 1487 1486 1485 1484 1483 1482 1482 1481 1480 1480 1479 1478 1477 1476 1474 1472 1471 1470 1468 1467 1467 1466 1465 1464 1464 1464 1463 1462 1462 1461 1460 1459 1457 1455 1455 1455 1454 1453 1454 1455 1455 1455 1454 1453 1452 1451 1450 1449 1450 1451 1451 1452 1452 1452 1452 1452 1454 1456 1457 1457 1457 1457 1457 1457 1456 1454 1452 1451 1450 1449 1449 1448
1489 1488 1488 1488 1487 1487 1486 1486 1486 1485 1485 1484 1484 1483 1483 1482 1481 1480 1479 1478 1477 1477 1476 1475 1474 1473 1472 1471 1469 1468 1466 1464 1463 1462 1462 1461 1460 1459 1458 1458 1457 1457 1456 1455 1455 1453 1452 1450 1450 1449 1448 1448 1448 1449 1449 1449 1449 1448 1447 1446 1446 1446 1446 1446 1446 1446 1446 1446 1446 1447 1449 1449 1450 1450 1450 1450 1450 1450 1448 1446 1444 1443 1442 1441 1441
1486 1485 1485 1485 1485 1484 1483 1483 1482 1482 1482 1481 1481 1480 1479 1479 1477 1476 1476 1475 1474 1474 1473 1472 1470 1469 1468 1467 1466 1464 1462 1461 1459 1458 1457 1456 1455 1454 1454 1453 1452 1452 1451 1450 1450 1449 1448 1446 1445 1445 1444 1443 1443 1443 1444 1444 1443 1443 1443 1442 1441 1441 1441 1441 1441 1441 1441 1440 1440 1440 1440 1441 1441 1442 1443 1443 1443 1442 1441 1440 1439 1438 1437 1436 1435
1483 1482 1482 1482 1482 1481 1480 1480 1479 1479 1479 1478 1477 1477 1476 1475 1474 1473 1472 1471 1471 1470 1469 1468 1467 1466 1464 1463 1462 1460 1459 1457 1456 1454 1453 1452 1451 1450 1449 1449 1448 1447 1446 1445 1444 1444 1443 1442 1441 1441 1440 1439 1438 1438 1438 1439 1439 1439 1439 1438 1438 1437 1437 1436 1436 1436 1435 1435 1434 1433 1433 1433 1433 1434 1435 1435 1435 1434 1433 1433 1433 1432 1431 1430 1429
1480 1480 1480 1479 1479 1478 1477 1477 1476 1476 1475 1475 1474 1473 1472 1471 1470 1469 1469 1468 1468 1467 1466 1465 1463 1462 1461 1459 1458 1456 1455 1454 1452 1450 1449 1448 1447 1446 1445 1445 1444 1443 1442 1441 1440 1439 1439 1438 1438 1438 1437 1435 1433 1432 1433 1434 1434 1434 1435 1435 1434 1434 1433 1433 1432 1432 1431 1430 1429 1428 1427 1426 1426 1426 1426 1426 1426 1425 1425 1425 1424 1425 1424 1424 1423
1478 1478 1477 1477 1476 1475 1474 1474 1474 1473 1472 1472 1471 1470 1469 1468 1467 1466 1465 1465 1464 1463 1462 1461 1460 1458 1457 1456 1454 1453 1452 1450 1449 1447 1446 1445 1444 1444 1442 1441 1441 1440 1439 1438 1437 1436 1435 1435 1434 1434 1434 1433 1430 1429 1429 1429 1430 1430 1430 1430 1430 1430 1429 1428 1427 1427 1426 1424 1422 1421 1420 1419 1418 1418 1417 1417 1417 1417 1417 1417 1417 1417 1418 1418 1418
1476 1476 1475 1474 1473 1473 1472 1472 1471 1470 1469 1468 1467 1466 1465 1464 1464 1463 1462 1461 1461 1460 1459 1457 1456 1455 1454 1452 1451 1450 1448 1447 1445 1444 1443 1442 1441 1440 1439 1439 1438 1437 1436 1435 1434 1433 1432 1431 1430 1430 1430 1430 1428 1427 1426 1425 1425 1425 1425 1425 1425 1425 1424 1423 1421 1420 1418 1417 1415 1414 1414 1413 1412 1411 1411 1411 1411 1411 1410 1410 1410 1411 1411 1412 1412
1474 1474 1473 1472 1471 1470 1469 1469 1468 1467 1466 1465 1464 1463 1462 1462 1461 1460 1459 1458 1457 1456 1455 1453 1452 1451 1450 1449 1448 1447 1445 1444 1443 1441 1440 1439 1438 1438 1437 1437 1436 1435 1434 1433 1431 1430 1429 1428 1427 1427 1427 1427 1427 1426 1423 1421 1421 1420 1420 1420 1420 1420 1418 1417 1416 1414 1413 1412 1411 1410 1409 1408 1408 1407 1407 1406 1406 1406 1405 1405 1405 1406 1407 1407 1408